Location: Ida Center
(41.8662°N, 83.5713°W)
Time: 07:32:28
(UTC+00:00)

COSMO-SKYMED 1 - Pass Details

Date: 17 November 2019
Orbit: 621 x 623 km, 97.9° (Epoch: 14 December)

Event Time Altitude Azimuth Distance (km) Brightness Sun altitude
Exits shadow 23:25:47 - 17° (NNE) 2,742 5.6 -13.8°
Reaches altitude 10° 23:27:37 10° 20° (NNE) 2,000 4.8 -14.1°
Maximum altitude 23:31:54 59° 100° (E) 724 2.6 -14.9°
Drops below altitude 10° 23:36:10 10° 181° (S) 1,983 5.3 -15.7°
Sets 23:38:22 0° 185° (S) 2,885 6.2 -16.1°
